FW5732 Weather Reports


Display with metric or nautical units.
time (UTC)temp
F
wind
direction
speed
MPH
gust
MPH
rain 1hr
in
rain 24hr
in
rain mn
in
humidity
%
barometer
mb
20260506002517 50 0.0 0.0 0.00 0.00 0.00 90 1007.7
20260506001557 50 0.0 0.0 0.00 0.00 0.00 90 1007.5
20260506000517 50 0.0 0.0 0.00 0.00 0.00 89 1007.7
20260505235537 50 0.0 0.0 0.00 0.00 0.00 89 1007.9
20260505190516 57 0.0 0.0 0.00 0.00 0.00 82 1007.3
20260505185536 58 0.0 0.0 0.00 0.00 0.00 81 1007.2
20260505183616 58 0.0 0.0 0.00 0.00 0.00 80 1007.1
20260505182516 59 0.0 0.0 0.00 0.00 0.00 79 1006.8
20260505181515 59 0.0 0.0 0.00 0.00 0.00 78 1006.8
20260505180535 60 0.0 0.0 0.00 0.00 0.00 77 1006.8
20260505175515 61 0.0 0.0 0.00 0.00 0.00 74 1006.5
20260505174515 61 0.0 0.0 0.00 0.00 0.00 73 1006.5
20260505173616 61 0.0 0.0 0.00 0.00 0.00 72 1006.7
20260505172537 61 0.0 0.0 0.00 0.00 0.00 73 1006.7
20260505171518 62 0.0 0.0 0.00 0.00 0.00 73 1006.7
20260505170517 62 0.0 0.0 0.00 0.00 0.00 72 1006.7
20260505165517 62 0.0 0.0 0.00 0.00 0.00 70 1006.7
20260505163517 62 0.0 0.0 0.00 0.00 0.00 71 1006.8
20260505161518 62 0.0 0.0 0.00 0.00 0.00 71 1006.9
20260505160537 62 0.0 0.0 0.00 0.00 0.00 71 1006.9
20260505152517 62 0.0 0.0 0.00 0.00 0.00 72 1006.9
20260505151517 62 0.0 0.0 0.00 0.00 0.00 72 1006.9
20260505150557 63 0.0 0.0 0.00 0.00 0.00 71 1006.8
20260505140537 62 0.0 0.0 0.00 0.00 0.00 70 1006.8
20260505124516 68 0.0 0.0 0.00 0.00 0.00 63 1007.1
20260505123557 69 0.0 0.0 0.00 0.00 0.00 61 1007.1
20260505122657 71 0.0 0.0 0.00 0.00 0.00 58 1007.1
20260505121516 72 0.0 0.0 0.00 0.00 0.00 56 1007.2
20260505120557 73 0.0 0.0 0.00 0.00 0.00 51 1007.2
20260505115516 73 0.0 0.0 0.00 0.00 0.00 52 1007.2
20260505114637 71 0.0 0.0 0.00 0.00 0.00 52 1007.1
20260505113517 71 0.0 0.0 0.00 0.00 0.00 51 1007.1
20260505112537 72 0.0 0.0 0.00 0.00 0.00 50 1007.3
20260505111617 74 0.0 0.0 0.00 0.00 0.00 45 1007.4
20260505110516 74 0.0 0.0 0.00 0.00 0.00 47 1007.4
20260505100516 72 0.0 0.0 0.00 0.00 0.00 52 1007.9
20260505095516 72 0.0 0.0 0.00 0.00 0.00 53 1008.1
20260505094536 73 0.0 0.0 0.00 0.00 0.00 50 1008.1
20260505093516 74 0.0 0.0 0.00 0.00 0.00 56 1008.3
20260505092516 70 0.0 0.0 0.00 0.00 0.00 61 1008.3
20260505091536 67 0.0 0.0 0.00 0.00 0.00 67 1008.1
20260505090516 66 0.0 0.0 0.00 0.00 0.00 66 1008.2
20260505085516 66 0.0 0.0 0.00 0.00 0.00 64 1008.2
20260505084637 67 0.0 0.0 0.00 0.00 0.00 62 1008.2
20260505083516 67 0.0 0.0 0.00 0.00 0.00 61 1008.2
20260505082637 69 0.0 0.0 0.00 0.00 0.00 59 1008.5
20260505081516 68 0.0 0.0 0.00 0.00 0.00 60 1008.5
20260505080516 68 0.0 0.0 0.00 0.00 0.00 62 1008.5
20260505075556 67 0.0 0.0 0.00 0.00 0.00 66 1008.7
20260505074657 66 0.0 0.0 0.00 0.00 0.00 66 1008.7
20260505073516 64 0.0 0.0 0.00 0.00 0.00 69 1008.9
20260505072556 64 0.0 0.0 0.00 0.00 0.00 69 1009.0
20260505071516 64 0.0 0.0 0.00 0.00 0.00 71 1009.0
20260505070616 61 0.0 0.0 0.00 0.00 0.00 76 1008.8
20260505065515 60 0.0 0.0 0.00 0.00 0.00 78 1008.7
20260505064515 59 0.0 0.0 0.00 0.00 0.00 80 1008.7
20260505063516 58 0.0 0.0 0.00 0.00 0.00 80 1008.7
20260505061656 57 0.0 0.0 0.00 0.00 0.00 83 1008.7
20260505060557 55 0.0 0.0 0.00 0.00 0.00 86 1008.6
20260505055535 54 0.0 0.0 0.00 0.00 0.00 87 1008.6
20260505054536 53 0.0 0.0 0.00 0.00 0.00 89 1008.6
20260505053516 52 0.0 0.0 0.00 0.00 0.00 90 1008.6
20260505052515 50 0.0 0.0 0.00 0.00 0.00 90 1008.6
20260505051515 49 0.0 0.0 0.00 0.00 0.00 90 1008.5
20260505050515 48 0.0 0.0 0.00 0.00 0.00 90 1008.6
20260505041617 47 0.0 0.0 0.00 0.00 0.00 90 1008.5
20260505040558 47 0.0 0.0 0.00 0.00 0.00 90 1008.4
20260505035537 47 0.0 0.0 0.00 0.00 0.00 89 1008.4
20260505034557 48 0.0 0.0 0.00 0.00 0.00 89 1008.4
20260505033538 48 0.0 0.0 0.00 0.00 0.00 89 1008.6
20260505032517 49 0.0 0.0 0.00 0.00 0.00 89 1008.8
20260505031517 49 0.0 0.0 0.00 0.00 0.00 89 1008.8
20260505030537 49 0.0 0.0 0.00 0.00 0.00 89 1008.9
20260505025517 50 0.0 0.0 0.00 0.00 0.00 89 1009.0
20260505024617 50 0.0 0.0 0.00 0.00 0.00 89 1009.1
20260505023617 50 0.0 0.0 0.00 0.00 0.00 89 1009.4
20260505022537 50 0.0 0.0 0.00 0.00 0.00 89 1009.6
20260505021517 50 0.0 0.0 0.00 0.00 0.00 89 1009.6
20260505020557 50 0.0 0.0 0.00 0.00 0.00 88 1009.6
20260505015537 50 0.0 0.0 0.00 0.00 0.00 88 1009.8
20260505014557 50 0.0 0.0 0.00 0.00 0.00 88 1009.8
20260505013537 50 0.0 0.0 0.00 0.00 0.00 87 1009.7
20260505012557 50 0.0 0.0 0.00 0.00 0.00 87 1009.8
20260505011517 51 0.0 0.0 0.00 0.00 0.00 87 1009.8
20260505010557 52 0.0 0.0 0.00 0.00 0.00 86 1009.9
20260505005557 53 0.0 0.0 0.00 0.00 0.00 85 1010.0
20260505004517 53 0.0 0.0 0.00 0.00 0.00 84 1010.0
20260505003516 54 0.0 0.0 0.00 0.00 0.00 83 1010.1